This is the latest recevied weather packets stored in our database for station/object N1ORT. If no packets are shown the sender has not sent any weather packets the latest 10 day(s).
| Time | Temp. | Humidity | Pressure | Rain* | Wind** | Luminosity | Snow |
|---|---|---|---|---|---|---|---|
| 1777877403 | 5° C | 72% | 1008.1 hPa | 0 mm | - | 0 W/m² | - |
| 1777877100 | 5° C | 75% | 1008.2 hPa | 0 mm | - | 0 W/m² | - |
| 1777876797 | 5° C | 75% | 1008.1 hPa | 0 mm | - | 0 W/m² | - |
| 1777876495 | 5° C | 70% | 1008.1 hPa | 0 mm | - | 0 W/m² | - |
| 1777876190 | 5° C | 72% | 1007.8 hPa | 0 mm | - | 0 W/m² | - |
| 1777875887 | 5° C | 69% | 1008 hPa | 0 mm | - | 0 W/m² | - |
| 1777875583 | 5° C | 73% | 1008.1 hPa | 0 mm | - | 0 W/m² | - |
| 1777875280 | 4.44° C | 76% | 1008.1 hPa | 0 mm | - | 0 W/m² | - |
| 1777874977 | 4.44° C | 77% | 1008.3 hPa | 0 mm | - | 0 W/m² | - |
| 1777874673 | 4.44° C | 76% | 1008.2 hPa | 0 mm | - | 0 W/m² | - |
| 1777874370 | 4.44° C | 76% | 1008.2 hPa | 0 mm | - | 0 W/m² | - |
| 1777874068 | 3.89° C | 78% | 1008.4 hPa | 0 mm | - | 0 W/m² | - |
| 1777873766 | 3.89° C | 78% | 1008.2 hPa | 0 mm | - | 0 W/m² | - |
| 1777873462 | 3.89° C | 79% | 1008.2 hPa | 0 mm | - | 0 W/m² | - |
| 1777873159 | 3.33° C | 79% | 1008.4 hPa | 0 mm | - | 0 W/m² | - |
| 1777872855 | 3.33° C | 79% | 1008.3 hPa | 0 mm | - | 0 W/m² | - |
| 1777872554 | 3.33° C | 80% | 1008.2 hPa | 0 mm | - | 0 W/m² | - |
| 1777872250 | 2.78° C | 80% | 1008.1 hPa | 0 mm | - | 0 W/m² | - |
| 1777871948 | 2.78° C | 82% | 1008.1 hPa | 0 mm | - | 0 W/m² | - |
| 1777871644 | 2.78° C | 83% | 1008.2 hPa | 0 mm | - | 0 W/m² | - |
| 1777871340 | 2.22° C | 87% | 1008.1 hPa | 0 mm | - | 0 W/m² | - |
| 1777871038 | 2.22° C | 87% | 1008.1 hPa | 0 mm | - | 0 W/m² | - |
| 1777870735 | 2.22° C | 84% | 1008.2 hPa | 0 mm | - | 0 W/m² | - |
| 1777870430 | 2.22° C | 85% | 1008.1 hPa | 0 mm | - | 0 W/m² | - |
| 1777870127 | 2.22° C | 85% | 1008.2 hPa | 0 mm | - | 0 W/m² | - |
* Rain latest hour (hover to see other rain measurements)
** Current wind speed in m/s (hover to see current wind gust speed)